TimeCDT,TemperatureF,Dew PointF,Humidity,Sea Level PressureIn,VisibilityMPH,Wind Direction,Wind SpeedMPH,Gust SpeedMPH,PrecipitationIn,Events,Conditions,WindDirDegrees,DateUTC
12:15 AM,70.2,66.6,88,30.01,10.0,Calm,Calm,-,N/A,,Clear,0,2013-10-04 05:15:00
12:35 AM,70.9,67.5,89,30.01,10.0,Calm,Calm,-,N/A,,Clear,0,2013-10-04 05:35:00
12:55 AM,69.4,67.5,93,30.02,10.0,NE,3.5,-,N/A,,Clear,40,2013-10-04 05:55:00
1:15 AM,69.3,67.5,94,30.02,10.0,Calm,Calm,-,N/A,,Scattered Clouds,0,2013-10-04 06:15:00
1:35 AM,69.4,67.1,92,30.03,10.0,NNE,3.5,-,N/A,,Scattered Clouds,30,2013-10-04 06:35:00
1:55 AM,69.3,67.1,93,30.03,10.0,Calm,Calm,-,N/A,Rain,Light Rain,0,2013-10-04 06:55:00
2:15 AM,68.9,67.1,94,30.03,10.0,Calm,Calm,-,N/A,,Scattered Clouds,0,2013-10-04 07:15:00
2:35 AM,68.4,66.9,95,30.02,10.0,Calm,Calm,-,N/A,,Mostly Cloudy,0,2013-10-04 07:35:00
2:55 AM,68.5,66.6,93,30.02,10.0,ESE,3.5,-,N/A,,Overcast,120,2013-10-04 07:55:00
3:15 AM,68.0,66.4,95,30.02,10.0,Calm,Calm,-,N/A,,Mostly Cloudy,0,2013-10-04 08:15:00
3:35 AM,67.6,65.5,93,30.01,10.0,South,3.5,-,N/A,,Clear,170,2013-10-04 08:35:00
3:55 AM,66.6,65.3,96,30.01,10.0,SSE,3.5,-,N/A,,Clear,160,2013-10-04 08:55:00
4:15 AM,66.4,65.3,96,30.01,10.0,SSE,4.6,-,N/A,,Clear,150,2013-10-04 09:15:00
4:35 AM,66.2,65.3,97,30.01,7.0,South,4.6,-,N/A,,Clear,170,2013-10-04 09:35:00
4:55 AM,66.9,65.7,96,30.02,10.0,South,3.5,-,N/A,,Mostly Cloudy,190,2013-10-04 09:55:00
5:15 AM,68.0,66.4,95,30.02,10.0,SSW,3.5,-,N/A,,Mostly Cloudy,200,2013-10-04 10:15:00
5:35 AM,68.9,66.4,92,30.03,10.0,Calm,Calm,-,N/A,,Overcast,0,2013-10-04 10:35:00
5:55 AM,68.5,66.4,93,30.03,10.0,Calm,Calm,-,N/A,,Mostly Cloudy,0,2013-10-04 10:55:00
6:15 AM,68.9,66.6,92,30.04,10.0,Calm,Calm,-,N/A,,Mostly Cloudy,0,2013-10-04 11:15:00
6:35 AM,68.4,66.4,93,30.04,10.0,Calm,Calm,-,N/A,,Scattered Clouds,0,2013-10-04 11:35:00
6:55 AM,68.2,66.7,95,30.04,7.0,SSE,3.5,-,N/A,,Scattered Clouds,150,2013-10-04 11:55:00
7:35 AM,69.4,68.0,95,30.05,7.0,SSW,3.5,-,N/A,,Mostly Cloudy,200,2013-10-04 12:35:00
7:55 AM,70.2,68.5,95,30.06,7.0,South,6.9,-,N/A,,Mostly Cloudy,180,2013-10-04 12:55:00
8:15 AM,71.6,69.4,93,30.06,10.0,South,5.8,-,N/A,,Mostly Cloudy,170,2013-10-04 13:15:00
8:35 AM,72.0,70.0,93,30.06,7.0,South,6.9,-,N/A,,Scattered Clouds,180,2013-10-04 13:35:00
8:55 AM,73.6,70.5,90,30.06,10.0,South,8.1,-,N/A,,Mostly Cloudy,170,2013-10-04 13:55:00
9:15 AM,74.1,70.7,89,30.06,10.0,South,9.2,-,N/A,,Overcast,180,2013-10-04 14:15:00
9:35 AM,75.4,70.5,85,30.06,10.0,South,8.1,-,N/A,,Scattered Clouds,190,2013-10-04 14:35:00
9:55 AM,76.6,70.9,82,30.05,10.0,South,10.4,-,N/A,,Scattered Clouds,170,2013-10-04 14:55:00
10:15 AM,78.3,71.2,79,30.05,10.0,South,8.1,-,N/A,,Clear,170,2013-10-04 15:15:00
10:35 AM,80.1,71.8,76,30.05,10.0,South,10.4,-,N/A,,Clear,190,2013-10-04 15:35:00
10:55 AM,81.5,71.6,72,30.05,10.0,SSW,8.1,-,N/A,,Clear,200,2013-10-04 15:55:00
11:15 AM,82.2,71.4,70,30.05,10.0,SSW,8.1,-,N/A,,Clear,200,2013-10-04 16:15:00
11:35 AM,83.3,71.4,67,30.05,10.0,South,5.8,-,N/A,,Scattered Clouds,170,2013-10-04 16:35:00
11:55 AM,82.4,71.1,68,30.05,10.0,SSE,4.6,-,N/A,,Mostly Cloudy,160,2013-10-04 16:55:00
12:15 PM,84.2,71.1,65,30.04,10.0,SW,8.1,-,N/A,,Mostly Cloudy,220,2013-10-04 17:15:00
12:35 PM,85.3,71.1,62,30.04,10.0,South,10.4,-,N/A,,Scattered Clouds,170,2013-10-04 17:35:00
12:55 PM,85.3,70.7,62,30.03,10.0,South,9.2,-,N/A,,Scattered Clouds,170,2013-10-04 17:55:00
1:15 PM,86.9,70.3,58,30.02,10.0,SSW,8.1,-,N/A,,Scattered Clouds,210,2013-10-04 18:15:00
1:35 PM,88.2,70.2,55,30.01,10.0,South,9.2,-,N/A,,Scattered Clouds,190,2013-10-04 18:35:00
1:55 PM,89.2,69.8,53,30.01,10.0,South,10.4,-,N/A,,Scattered Clouds,180,2013-10-04 18:55:00
2:15 PM,89.1,69.6,52,30.00,10.0,SSW,9.2,-,N/A,,Clear,210,2013-10-04 19:15:00
2:35 PM,88.3,68.4,51,30.00,10.0,SSW,11.5,18.4,N/A,,Clear,210,2013-10-04 19:35:00
2:55 PM,87.3,68.2,53,30.00,10.0,SSW,9.2,-,N/A,,Scattered Clouds,210,2013-10-04 19:55:00
3:15 PM,87.3,68.0,53,29.99,10.0,South,11.5,-,N/A,,Scattered Clouds,180,2013-10-04 20:15:00
3:35 PM,88.7,67.8,50,29.98,10.0,South,12.7,-,N/A,,Scattered Clouds,180,2013-10-04 20:35:00
3:55 PM,88.3,67.8,50,29.98,10.0,SSW,11.5,18.4,N/A,,Scattered Clouds,200,2013-10-04 20:55:00
4:15 PM,87.8,67.3,50,29.98,10.0,South,11.5,17.3,N/A,,Clear,190,2013-10-04 21:15:00
4:35 PM,87.8,67.1,50,29.98,10.0,South,8.1,16.1,N/A,,Clear,190,2013-10-04 21:35:00
4:55 PM,86.4,68.4,55,29.98,10.0,South,12.7,-,N/A,,Scattered Clouds,170,2013-10-04 21:55:00
5:15 PM,86.9,68.5,54,29.98,10.0,South,8.1,-,N/A,,Scattered Clouds,180,2013-10-04 22:15:00
5:35 PM,84.6,69.1,60,29.98,10.0,SSE,9.2,-,N/A,,Scattered Clouds,160,2013-10-04 22:35:00
5:55 PM,82.2,71.6,70,29.98,10.0,SE,8.1,-,N/A,,Scattered Clouds,140,2013-10-04 22:55:00
6:15 PM,80.8,71.6,73,29.99,10.0,SSE,5.8,-,N/A,,Clear,160,2013-10-04 23:15:00
6:35 PM,79.0,71.2,77,30.00,10.0,SSE,5.8,-,N/A,,Scattered Clouds,160,2013-10-04 23:35:00
6:55 PM,78.1,71.1,79,30.00,10.0,SSE,5.8,-,N/A,,Scattered Clouds,150,2013-10-04 23:55:00
7:15 PM,77.4,70.7,80,30.00,10.0,SSE,5.8,-,N/A,,Clear,150,2013-10-05 00:15:00
7:35 PM,76.6,70.3,81,30.01,10.0,SSE,5.8,-,N/A,,Clear,160,2013-10-05 00:35:00
7:55 PM,76.5,70.3,81,30.01,10.0,SSE,6.9,-,N/A,,Clear,160,2013-10-05 00:55:00
8:15 PM,77.0,70.7,81,30.01,10.0,SSE,8.1,-,N/A,,Scattered Clouds,160,2013-10-05 01:15:00
8:35 PM,76.3,70.7,83,30.02,10.0,SSE,6.9,-,N/A,,Scattered Clouds,160,2013-10-05 01:35:00
8:55 PM,75.4,70.7,85,30.02,10.0,South,8.1,-,N/A,,Scattered Clouds,180,2013-10-05 01:55:00
9:15 PM,75.2,70.0,84,30.03,10.0,South,9.2,-,N/A,,Mostly Cloudy,180,2013-10-05 02:15:00
9:35 PM,75.2,69.8,83,30.04,10.0,SSW,5.8,-,N/A,,Mostly Cloudy,210,2013-10-05 02:35:00
9:55 PM,75.2,70.9,86,30.04,10.0,South,9.2,-,N/A,,Mostly Cloudy,190,2013-10-05 02:55:00
10:15 PM,75.0,69.3,82,30.03,10.0,South,9.2,-,N/A,,Mostly Cloudy,170,2013-10-05 03:15:00
10:35 PM,75.2,70.2,84,30.03,10.0,South,6.9,-,N/A,,Mostly Cloudy,180,2013-10-05 03:35:00
10:55 PM,74.5,70.3,87,30.03,10.0,SSE,5.8,-,N/A,,Mostly Cloudy,160,2013-10-05 03:55:00
11:15 PM,73.9,70.3,88,30.03,10.0,SSE,3.5,-,N/A,,Mostly Cloudy,160,2013-10-05 04:15:00
11:35 PM,73.9,70.3,88,30.03,10.0,SE,6.9,-,N/A,,Mostly Cloudy,130,2013-10-05 04:35:00
11:55 PM,73.6,70.2,89,30.02,10.0,SE,6.9,-,N/A,,Mostly Cloudy,140,2013-10-05 04:55:00